ARIANE 5 DEB (SYLDA), 28887

Orbit data source: Space-Track

ARIANE 5 DEB (SYLDA), 28887 is space debris in HEO originally from a launch on Thu, 13 Oct 2005 UTC launched from the French Guiana (FRGUI). Debris objects in space refer to the collection of defunct objects orbiting the Earth. Examples of debris include non-operational satellites, rocket bodies, and fragments generated from explosions, collisions, or faulty payload assembly.

Loading next visibility...
Identifier
28887, 2005-041D
Orbit
HEO
Last TLE update
1 day ago
Origin
Manufacturer
EADS/Bremen
Mission
Spacecraft
Bus & Motor
SYLDA 5, Unknown motor
Mass
440 kg wet, 440 kg dry
Launch date (UTC)
2005-10-13 (20 years ago)
Launch vehicle
Unknown
Launch site
French Guiana (FRGUI)
Object type
Payload
Rocket body
Debris
Shape & HBR
Cyl, 5.8 m
Radar Cross Section
28.451 m², Large (>1 m²)

Expand to show TLE details & history

TLE from 1 day ago
0 ARIANE 5 DEB (SYLDA)
1 28887U 05041D   25128.50591618  .00000409  00000-0  41692-2 0  9993
2 28887   7.6304 317.0874 7167615 160.5220 254.9317  2.27323545161781
Epoch: 2025-05-08T12:08Z
Definitive object data (Epoch: 2025-05-08T12:08:31.157Z)
Latitude
0.00007°
Longitude
-91.70304°
Altitude
30,269.973 km
Speed
2.332 km/s
True Right ascension
21h 08m 00s
True Declination
0° 00' 00"
Sunlit
Object was in daylight at TLE epoch
Visualization TLE readout
Latitude
-5.9771°
Longitude
-143.26862°
Altitude
23,551.081 km
Speed
3.213 km/s
Apparent Right ascension
17h 04m 13s
Apparent Declination
-14° 03' 21"
Sunlit
Object is in daylight
Visualization observer readout
Local Sidereal Time
22:32:23
Azimuth
254.167° W
Elevation
-3.028°
Doppler factor
1
Orbital elements
Apogee altitude
35,575.968 km
Perigee altitude
543.627 km
Semi-major axis
24,437.934 km
Eccentricity
0.7167615
Inclination
7.6304°
RAAN
317.0874°
Arg. of periapsis
160.522°
True anomaly
199.37583°
Mean anomaly
254.9317°
Eccentric anomaly
225.59345°
Mean motion
0.56813 °/min
BSTAR
0.0041692
Orbital period
633.66 mins
Loading maneuver chart data...
Loading SW <> Apogee altitude chart data...
Loading historical data...
Loading historical data...
Loading historical data...
Loading historical data...
Loading historical data...
Loading historical data...
Loading historical data...
Other satellites on launch #41 in the year 2005 (2005-10-13 UTC)

ARIANE 5 DEB (SYLDA) Visibility forecast

Observer location: undefined°, undefined°

Span
Click to sort rows by Start time (UTC) header in descending order
Start Az.
Max El. time (UTC)
Max El. Az.
Max El.
End time (UTC)
End Az.
238 mins2025-05-10 10:24:15.199Z227.515° WSW2025-05-10 12:30:15.199Z221.361° SW24.857°2025-05-10 14:22:15.199Z233.936° WSW
|